Lapse_Rate
9.6 9.7 9.7 9.6 9.6 9.7 9.7 9.7 9.8 9.7 9.3 7.6 6.4 6.5 6.5 6.9 7.4 7.7 7.3 7.1 6.8 7.3
9.7 9.6 9.6 9.6 9.7 9.8 9.8 9.9 9.7 9.6 9.2 8.0 6.5 6.8 7.8 8.0 7.8 7.7 7.3 7.4 7.3 7.3
9.6 9.5 9.6 9.6 9.4 9.4 9.6 9.7 9.6 9.5 9.2 7.9 7.3 7.4 7.9 8.1 8.0 7.7 8.0 8.0 8.1 8.0
9.3 9.0 9.3 9.5 9.4 9.3 9.3 9.5 9.5 9.3 9.1 8.3 7.9 8.1 8.4 8.1 8.1 8.2 7.9 8.0 8.2 8.1
9.5 9.4 9.4 9.3 8.5 7.9 9.2 9.6 9.5 9.4 9.2 9.0 8.5 8.4 8.4 7.9 8.4 8.2 8.4 8.4 8.4 8.2
9.2 8.9 9.3 9.3 8.9 9.2 9.2 9.4 9.5 9.3 9.1 8.9 8.7 8.7 8.8 8.3 7.8 8.2 8.7 8.7 8.8 8.4
9.3 9.5 9.5 9.2 9.2 9.3 9.3 9.3 9.2 9.3 9.0 8.7 8.7 8.9 8.3 8.4 8.1 7.9 7.6 6.9 8.6 8.5
9.5 9.6 9.5 9.2 9.4 9.5 9.4 9.3 9.2 9.2 9.1 8.9 8.9 9.0 8.3 8.4 7.9 7.7 7.3 8.0 8.7 8.9
9.5 9.3 9.3 9.3 9.4 9.4 9.3 9.3 9.2 9.0 8.8 8.8 9.1 8.5 7.8 7.7 7.5 7.1 8.5 8.5 8.8 8.9
9.4 9.2 9.2 9.4 9.4 9.3 9.3 9.4 9.1 9.0 9.1 8.8 8.8 8.7 7.1 6.3 7.4 8.7 8.6 8.7 8.8 9.0
9.2 9.2 9.4 9.4 9.3 9.4 9.5 9.2 9.1 9.2 9.0 8.8 9.0 8.4 8.0 6.9 7.7 8.7 9.1 9.0 9.0 8.7
9.3 9.3 9.2 9.1 9.0 9.3 9.4 9.3 9.2 9.2 9.0 8.8 9.0 8.9 8.3 8.4 8.0 8.5 8.2 8.7 8.9 8.9
9.6 9.4 9.2 9.2 9.3 9.4 9.5 9.3 9.4 9.1 9.0 8.9 8.9 9.0 8.8 8.7 8.5 8.3 7.7 7.6 8.3 8.3
9.7 9.6 9.6 9.3 9.7 9.7 9.5 9.3 9.1 8.9 9.1 8.9 8.9 8.9 9.1 9.1 8.5 8.0 7.3 7.6 6.9 8.0
Wind_Speed
7 6 7 9 9 8 8 10 12 12 14 15 16 13 10 9 9 12 10 16 12 10
6 7 8 9 9 9 11 10 13 13 13 13 14 14 14 9 11 11 11 12 12 11
6 6 7 8 9 11 12 13 13 14 14 14 14 14 13 11 11 12 10 10 13 13
6 7 7 7 9 11 13 13 13 13 14 14 14 13 13 14 13 14 13 14 14 16
7 8 9 9 9 10 12 13 13 14 14 14 14 14 13 14 13 15 16 17 17 17
7 8 9 10 11 11 11 12 13 13 14 15 14 15 14 13 15 16 18 18 18 19
8 9 8 10 11 12 11 12 12 13 14 13 14 14 13 16 17 18 18 19 19 19
8 10 11 11 11 11 11 12 13 13 13 13 11 10 15 16 17 19 20 19 18 17
10 10 10 11 12 11 12 12 13 13 13 12 11 15 23 21 17 20 18 18 18 18
9 9 10 11 12 12 12 12 13 13 13 14 14 21 26 28 17 16 16 18 18 18
8 9 10 11 12 13 12 12 12 13 13 13 12 23 26 30 20 16 17 18 19 18
8 9 10 12 12 13 12 12 13 13 14 15 14 24 28 27 18 17 19 18 17 17
7 9 10 12 12 12 12 12 11 13 14 16 15 23 28 26 14 16 15 17 16 23
8 8 9 10 11 11 12 12 13 14 13 14 14 16 28 30 15 13 15 13 14 14
Wind_Direction
350 343 332 346 331 320 329 326 334 331 326 319 315 313 310 310 305 303 303 299 296 295
350 351 347 338 328 334 327 330 328 329 323 320 317 316 314 306 302 304 302 300 299 298
359 348 349 341 339 329 329 325 330 328 325 323 319 317 315 312 308 309 302 306 305 304
357 350 343 347 347 334 327 329 329 327 326 322 320 320 319 314 312 314 312 308 305 303
1 351 346 346 346 337 325 331 331 328 326 324 325 322 321 316 316 320 313 307 300 296
1 349 346 345 338 333 331 336 329 329 327 330 327 327 322 334 328 320 312 307 302 299
353 348 349 348 334 329 340 331 331 334 333 330 334 325 344 335 324 316 311 304 299 294
358 355 355 340 330 342 341 339 340 340 331 334 332 343 345 334 323 317 310 305 302 299
2 355 350 335 337 353 347 341 344 337 330 335 335 348 345 338 326 318 314 312 310 309
3 349 352 340 342 349 349 345 343 338 342 339 337 350 345 338 324 323 318 320 316 312
359 352 347 351 343 351 346 350 346 339 344 342 339 351 344 340 330 325 326 324 317 313
2 348 359 357 349 347 348 347 347 349 344 343 344 350 347 345 337 329 332 324 322 325
2 360 4 353 355 345 355 351 349 346 349 348 350 348 349 349 338 335 332 328 330 331
12 7 13 356 357 353 355 354 353 349 349 350 352 351 351 349 342 341 336 333 333 332